Dewpoint
64 59 44 38 31 30 27 27 35 28 32 33 33 33 33 35 36 36 54 63 65 66 70 71 73 73 71 69 68 67 65 65 63 62 64 67 65 62 61 61 60 60 58 59 61 64 64 64 63
61 54 41 37 30 24 24 29 29 31 31 31 34 36 36 41 50 52 58 63 67 68 71 71 73 73 71 70 68 67 65 63 62 62 65 63 62 62 61 60 59 59 59 59 59 59 61 62 61
55 44 37 34 30 27 25 25 29 32 31 32 35 40 41 45 52 53 57 66 69 70 71 71 74 73 72 70 69 67 65 63 62 61 62 63 62 62 62 61 60 61 59 59 59 58 58 58 58
49 43 38 32 30 31 26 25 33 31 29 33 37 40 45 48 51 53 63 68 69 69 70 72 74 73 73 71 69 68 66 63 62 61 62 62 63 63 63 63 61 62 60 60 59 58 59 59 60
45 41 35 33 32 32 32 33 33 31 28 29 33 36 44 49 54 62 66 68 67 68 69 71 74 73 72 70 69 68 66 65 63 63 63 64 62 64 64 64 63 63 61 60 59 58 58 59 60
45 40 35 32 32 33 33 34 34 29 27 29 34 42 44 49 54 62 66 65 67 68 69 71 72 73 73 71 70 68 67 66 64 63 63 64 64 64 67 65 64 63 62 61 61 61 62 62 61
44 39 36 33 32 32 33 34 32 33 29 30 35 39 45 46 53 59 64 64 65 67 68 70 71 71 72 71 70 70 68 67 66 64 64 65 66 64 67 66 65 64 63 62 63 63 63 62 62
47 41 37 36 34 34 35 37 35 27 26 34 38 38 43 43 53 55 60 64 64 66 67 68 69 70 70 69 70 70 69 69 68 67 66 66 65 64 64 67 67 65 64 64 64 64 63 63 63
47 42 39 38 36 36 38 36 38 37 33 36 36 39 39 48 54 56 59 63 64 66 66 67 68 69 68 68 69 69 69 68 67 66 65 64 62 61 61 64 67 67 66 65 64 64 64 66 65
48 43 40 41 39 38 38 39 38 38 38 36 37 39 48 52 53 53 56 59 62 64 65 67 67 67 67 69 67 67 67 66 65 64 62 61 59 58 58 60 63 65 65 65 64 63 62 59 59
46 43 43 44 44 44 42 40 40 38 38 37 37 38 42 51 53 52 53 57 60 61 64 66 66 66 67 68 66 66 65 65 64 62 61 61 61 59 58 58 57 59 60 58 58 57 57 56 54
40 45 46 47 47 47 45 44 43 39 38 38 40 39 39 40 50 52 52 53 54 58 62 64 66 66 66 66 66 66 65 64 63 62 61 60 60 58 56 57 56 57 57 56 57 54 45 43 41
41 43 44 43 43 46 47 46 46 44 44 44 43 41 40 39 39 42 47 47 50 53 57 61 64 65 66 66 66 65 65 64 63 63 62 61 60 56 56 57 58 57 53 45 44 42 39 37 36
40 40 40 41 41 41 42 42 44 44 45 43 41 41 41 40 40 39 40 40 41 42 45 57 62 63 65 65 65 65 64 63 63 62 62 61 58 58 58 49 45 43 42 41 39 36 35 31 30
41 39 39 40 40 39 41 39 40 41 44 44 44 43 42 41 40 40 40 40 40 40 41 53 59 62 63 64 64 64 64 63 62 60 59 59 59 50 47 45 41 39 38 34 31 30 32 27 26
39 38 33 36 39 39 40 34 37 40 41 43 44 43 41 41 40 40 40 40 40 40 45 52 58 61 62 63 64 62 62 60 55 55 57 50 46 45 43 40 37 33 32 32 30 29 30 26 26
38 32 32 34 37 38 40 36 40 40 41 41 42 41 40 40 40 40 40 40 41 43 46 52 58 60 62 61 59 54 50 48 46 45 43 41 40 40 38 35 32 30 29 28 28 27 31 26 24
28 30 29 31 35 36 35 35 36 38 38 38 40 41 40 40 40 40 39 41 43 45 48 52 58 59 55 50 46 44 42 42 43 38 37 34 33 33 33 30 28 27 27 25 24 25 26 30 27
33 34 33 33 35 34 33 33 33 33 37 38 39 40 40 41 41 39 39 42 45 48 49 53 56 52 50 47 45 44 40 36 34 32 31 30 29 29 29 29 26 26 24 23 23 24 23 27 28
34 33 30 32 33 33 32 31 31 32 33 35 38 39 40 41 39 39 41 45 49 50 50 53 51 50 50 48 43 41 37 33 30 29 27 27 26 26 26 26 25 24 24 22 22 22 22 23 27
31 30 29 28 29 31 30 28 24 24 28 30 31 33 38 40 40 39 41 46 50 51 52 52 50 48 46 41 37 32 30 28 27 25 26 25 24 25 24 23 23 23 24 24 23 21 20 20 22
29 32 32 31 31 25 31 22 23 25 25 26 28 32 38 40 39 39 41 47 50 51 52 51 48 45 42 40 38 35 34 29 28 25 23 22 22 22 23 22 22 22 23 20 21 19 21 20 21
30 33 32 33 32 30 29 27 23 24 23 24 30 35 37 39 40 39 42 46 50 51 50 48 45 43 41 40 38 36 33 29 25 22 19 19 19 20 20 19 19 19 22 19 17 17 17 20 18
34 33 33 35 32 25 25 25 20 19 19 19 30 32 37 39 39 39 43 49 49 49 47 45 44 42 40 39 37 35 28 23 21 21 20 20 20 20 17 17 17 17 18 18 18 17 15 17 16
35 34 25 23 24 19 23 24 22 20 21 26 27 33 37 39 39 44 46 48 47 47 46 45 43 40 39 37 35 30 26 25 20 20 19 17 17 17 14 13 14 15 17 17 17 16 16 16 15
31 31 25 17 16 16 21 20 19 23 24 24 25 29 34 37 40 44 46 48 47 47 45 44 42 38 36 34 30 27 25 25 23 21 18 17 16 15 13 13 13 13 15 15 15 18 17 16 16
34 30 31 28 28 24 23 24 26 27 25 30 30 27 26 33 41 44 47 47 46 45 44 42 38 34 31 28 25 23 22 21 19 16 16 16 14 12 12 12 13 14 15 15 15 16 15 15 16
34 34 28 29 19 17 18 17 17 20 16 19 24 23 32 37 42 45 46 44 43 41 38 36 34 30 25 23 21 19 17 15 14 14 13 11 11 12 13 14 14 14 15 15 15 16 17 15 16
33 32 33 29 27 15 12 12 14 13 15 25 32 27 31 39 43 44 42 39 36 34 34 30 26 24 21 19 17 15 14 12 11 10 11 11 12 12 14 14 14 15 15 15 15 15 15 15 16
31 30 29 23 21 23 19 15 21 26 31 34 36 36 38 41 43 41 37 35 33 30 29 26 23 20 18 16 14 13 12 10 10 10 11 11 12 13 14 14 14 15 16 16 14 14 15 16 17
Lifted_Index
2 3 5 6 6 5 5 6 6 5 4 3 3 2 2 2 2 2 1 -0 -1 -2 -4 -5 -5 -4 -3 -1 -0 1 2 3 4 4 3 2 3 3 3 3 4 5 5 5 5 4 4 4 4
2 3 5 6 5 4 4 5 5 5 4 3 3 2 2 2 2 1 0 -1 -2 -3 -4 -5 -5 -5 -3 -2 -0 1 2 3 4 4 3 2 3 3 3 4 4 5 5 5 5 5 5 5 5
3 4 5 5 5 4 4 5 5 4 4 4 3 2 2 1 1 1 0 -1 -3 -4 -5 -5 -6 -5 -4 -2 -1 0 1 2 3 4 3 2 2 3 3 3 4 4 5 5 5 5 5 5 5
3 4 5 5 4 4 4 5 4 4 4 4 3 3 2 1 1 0 -1 -2 -4 -4 -5 -6 -6 -5 -4 -3 -2 -1 0 1 2 3 3 2 2 2 2 3 3 3 4 5 5 5 5 5 5
4 4 4 4 4 4 4 4 4 4 4 5 4 3 2 1 0 -0 -2 -3 -4 -4 -5 -6 -6 -6 -5 -4 -3 -2 -1 0 1 2 2 2 1 1 1 2 2 3 3 4 4 4 4 4 4
4 4 4 4 3 4 4 4 4 4 4 5 4 3 2 1 0 -0 -1 -2 -3 -4 -5 -6 -6 -6 -5 -4 -3 -2 -2 -1 0 1 1 1 1 0 0 1 1 2 3 3 3 3 3 4 4
4 4 4 4 3 3 4 4 4 3 3 4 4 3 3 1 0 -0 -1 -2 -2 -3 -4 -5 -6 -6 -5 -4 -4 -3 -3 -2 -1 0 1 1 1 1 0 0 1 1 2 2 2 2 3 3 3
3 4 4 4 3 3 3 4 3 3 3 3 4 3 3 2 1 -0 -1 -2 -2 -3 -4 -5 -6 -6 -5 -5 -4 -4 -3 -3 -2 -1 0 0 1 2 1 0 0 0 1 1 1 2 2 2 2
3 4 4 4 3 3 3 3 3 3 3 3 3 3 3 2 1 0 -1 -1 -2 -3 -4 -4 -5 -5 -5 -4 -4 -4 -4 -3 -2 -1 0 1 2 3 2 1 1 0 0 1 1 2 2 2 2
3 3 4 3 3 3 3 3 3 3 3 3 3 2 2 2 1 0 -0 -1 -2 -3 -4 -4 -5 -5 -5 -4 -4 -4 -3 -3 -1 -0 1 1 2 3 3 3 2 2 1 2 2 2 2 3 3
4 4 3 3 3 3 2 2 3 3 3 3 2 2 2 1 1 0 -0 -1 -1 -2 -3 -4 -4 -4 -4 -4 -4 -4 -3 -2 -1 -0 1 1 2 3 3 3 3 3 3 2 3 3 3 3 4
5 5 4 4 3 3 2 2 2 3 3 3 3 2 2 2 1 0 0 -0 -0 -1 -2 -3 -4 -4 -4 -4 -4 -4 -3 -2 -1 -0 0 1 1 2 2 3 3 3 3 3 3 3 3 4 4
6 6 5 5 5 4 4 3 3 3 3 3 3 2 2 2 2 2 1 1 1 0 -1 -1 -2 -3 -3 -3 -3 -3 -3 -3 -2 -1 -0 0 1 1 2 2 2 2 3 3 3 3 3 4 4
7 7 6 6 6 5 5 4 4 4 3 3 3 3 2 2 2 2 2 2 2 2 1 1 -1 -2 -2 -3 -3 -3 -3 -3 -3 -2 -1 -1 0 1 1 2 2 2 3 3 3 4 4 5 6
7 7 7 6 6 6 5 5 5 5 4 4 3 3 2 2 2 2 2 3 3 2 2 2 1 -1 -2 -2 -2 -3 -4 -4 -3 -3 -2 -1 0 1 1 2 2 3 3 4 5 6 7 9 9
7 7 6 6 6 6 5 5 5 5 5 4 4 3 3 2 2 1 2 3 3 3 2 2 1 -0 -1 -2 -2 -3 -4 -4 -4 -3 -2 -1 0 1 2 3 3 4 5 7 8 9 10 11 12
6 6 5 5 6 6 5 5 5 5 5 5 4 4 4 3 2 2 2 3 3 3 2 2 1 0 -1 -2 -3 -3 -4 -4 -3 -3 -2 -1 0 1 2 3 5 6 9 10 11 11 12 13 13
6 6 6 6 6 6 6 6 6 6 6 5 5 5 4 4 3 2 2 2 3 3 2 2 1 0 -1 -2 -3 -4 -4 -3 -3 -2 -2 -1 0 1 3 5 8 10 11 12 12 12 13 14 14
6 6 6 7 7 6 6 7 7 7 7 7 6 6 5 4 3 2 2 2 2 3 3 2 1 0 -1 -2 -3 -3 -3 -3 -2 -2 -1 -0 1 2 5 8 11 12 12 12 12 13 14 15 15
7 6 6 7 7 7 7 6 7 8 8 8 8 7 6 5 4 3 2 2 2 2 3 3 1 -0 -1 -2 -3 -3 -3 -2 -2 -1 -1 0 2 5 8 11 12 12 11 11 12 13 14 15 16
6 6 6 7 7 7 6 5 5 7 8 8 8 8 7 6 5 4 3 2 2 2 3 3 2 0 -1 -2 -2 -3 -2 -2 -1 -0 0 2 5 8 11 12 11 11 11 11 13 14 15 16 16
6 7 7 7 6 6 5 4 4 5 6 7 8 8 8 7 6 5 4 3 2 2 3 3 3 1 -0 -1 -2 -2 -2 -1 -0 1 1 4 7 10 11 11 11 11 11 12 14 15 16 16 16
6 7 7 7 6 5 5 4 4 5 5 6 7 8 8 7 6 5 4 3 2 2 2 2 3 2 1 -0 -1 -1 -1 -0 0 1 2 5 9 11 11 11 11 11 12 13 15 16 17 17 17
6 6 5 5 4 4 5 5 4 5 5 6 7 8 7 7 6 5 4 3 2 2 2 2 2 2 2 0 -1 -1 -1 0 1 1 3 6 10 11 11 11 11 12 13 15 16 17 18 18 18
4 4 3 2 2 3 4 5 5 6 7 7 7 7 7 6 5 5 4 3 2 2 1 1 1 1 1 -0 -0 -0 0 1 2 3 6 9 10 11 11 11 12 13 14 16 17 18 18 18 18
3 2 1 1 1 2 3 4 6 7 7 7 6 6 6 6 5 4 4 3 2 1 1 0 0 0 -0 -0 -0 1 2 3 4 7 9 10 11 11 11 12 12 14 16 17 18 18 18 18 18
2 2 1 1 0 1 2 3 5 6 6 6 6 6 6 5 4 3 3 3 2 1 0 -0 -0 -0 -1 -0 1 3 4 6 8 10 11 11 11 11 12 12 13 15 17 18 18 18 18 18 19
2 2 1 1 0 0 1 2 3 5 5 4 5 5 5 5 4 3 3 2 2 1 0 0 -0 -0 -0 1 3 5 8 9 10 11 11 11 11 11 11 12 14 15 17 18 18 18 18 18 18
3 2 2 1 1 1 1 1 3 4 4 4 4 4 4 5 5 4 3 2 1 1 1 0 -0 -0 0 2 5 8 9 11 11 11 11 11 11 11 12 13 14 16 18 18 18 18 18 18 18
3 3 2 2 1 1 1 1 3 3 3 3 3 3 3 4 5 4 3 2 1 1 1 1 0 -0 1 3 6 9 10 11 11 11 11 11 11 11 12 13 15 17 18 18 18 18 18 18 18